Home   Weather   Dera Ghazi Khan   Past weeks
Flag for Pakistan

Past Weather in Dera Ghazi Khan, Pakistan — Yesterday and Last 2 Weeks

Now
57 °F

Clear.


Feels Like: 57 °F
Forecast: 72 / 52 °F
Wind: No wind

Location: Multan Airport

Current Time: Feb 22, 2019 at 11:45:51 pm

Latest Report: Feb 22, 2019 at 11:00 pm


Visibility: 3 mi

Pressure: 30.09 "Hg

Humidity: 77%

Dew Point: 50 °F

Location of Dera Ghazi KhanLocation

Past Weather in Dera Ghazi Khan — Graph

°F

Dera Ghazi Khan Temperature Yesterday

Maximum temperature yesterday: 55 °F (at 9:30 am)
Minimum temperature yesterday: 50 °F (at 1:30 am)
Average temperature yesterday: 52 °F

High & Low Weather Summary for the Past Weeks

 TemperatureHumidityPressure
High73 °F (Feb 16, 4:00 pm)100% (Feb 15, 7:00 am)30.21 "Hg (Feb 15, 7:00 am)
Low43 °F (Feb 9, 6:30 am)29% (Feb 11, 3:30 pm)29.74 "Hg (Feb 18, 6:00 am)
Average59 °F70%30.02 "Hg
* Reported Feb 7 10:00 pm — Feb 22 10:30 pm, Dera Ghazi Khan. Weather by CustomWeather, © 2019

Note: Actual official high and low records may vary slightly from our data, if they occured in-between our weather recording intervals... More about our weather records

Advertising

Dera Ghazi Khan Weather History for the Previous 24 Hours

Scroll right to see more
 ConditionsComfort  
Time TempWeatherWind HumidityBarometerVisibility
10:30 pm
Fri, Feb 22
59 °FClear.No wind72%30.09 "Hg3 mi
10:00 pm59 °FClear.No wind72%30.09 "Hg3 mi
9:30 pm59 °FPassing clouds.No wind72%30.09 "Hg3 mi
9:00 pm61 °FPassing clouds.No wind68%30.09 "Hg3 mi
8:30 pm61 °FPassing clouds.No wind68%30.09 "Hg3 mi
8:00 pm63 °FPassing clouds.No wind59%30.09 "Hg3 mi
7:30 pm64 °FPassing clouds.No wind60%30.07 "Hg3 mi
7:00 pm64 °FPassing clouds.No wind60%30.07 "Hg3 mi
6:30 pm66 °FPassing clouds.No wind52%30.07 "Hg3 mi
6:00 pm66 °FPassing clouds.No wind52%30.07 "Hg4 mi
5:30 pm68 °FHaze.No wind49%30.07 "Hg4 mi
5:00 pm68 °FHaze.No wind43%30.07 "Hg4 mi
4:30 pm70 °FHaze.5 mph40%30.07 "Hg4 mi
4:00 pm70 °FScattered clouds.7 mph43%30.07 "Hg4 mi
3:30 pm70 °FScattered clouds.5 mph40%30.07 "HgN/A
3:00 pm70 °FScattered clouds.No wind43%30.09 "HgN/A
2:30 pm70 °FScattered clouds.No wind43%30.09 "HgN/A
2:00 pm68 °FPassing clouds.5 mph43%30.09 "HgN/A
1:30 pm68 °FPassing clouds.No wind43%30.09 "HgN/A
1:00 pm66 °FPassing clouds.7 mph46%30.12 "HgN/A
12:30 pm66 °FPassing clouds.5 mph46%30.12 "HgN/A
11:30 am66 °FPassing clouds.7 mph49%30.15 "HgN/A
11:00 am64 °FPassing clouds.7 mph64%30.15 "Hg3 mi
10:30 am63 °FPassing clouds.7 mph77%30.12 "Hg2 mi
10:05 am59 °FFog.No wind82%30.12 "Hg2 mi
10:00 am57 °FFog.No wind88%30.12 "Hg1 mi
9:30 am54 °FFog.No wind94%30.12 "Hg1 mi
Weather by CustomWeather, © 2019

See weather overview